Location: Unspecified
(0.0000°N, 0.0000°E)
Time: 00:05:30
(UTC+00:00)

Envisat - Pass Details

Date: 19 February 2020
Orbit: 764 x 766 km, 98.1° (Epoch: 25 February)

Event Time Altitude Azimuth Distance (km) Brightness Sun altitude
Rises 18:26:25 0° 175° (S) 3,231 6.3 -3.1°
Reaches altitude 10° 18:28:45 10° 179° (S) 2,302 5.6 -3.7°
Maximum altitude 18:33:45 60° 258° (WSW) 875 3.8 -4.9°
Drops below altitude 10° 18:38:43 10° 337° (NNW) 2,292 5.6 -6.1°
Sets 18:41:03 0° 341° (NNW) 3,215 6.3 -6.7°
